ARIANE 5 R/B

Last updated on Wed Nov 05 2025 00:02:15 GMT+0000 (Coordinated Universal Time)

1 28499U 04049H 25308.44663221 .00000978 00000+0 11478-3 0 9992 2 28499 98.2512 107.3634 0085509 37.6490 323.0667 14.84892962127203
UTC large
Height (km)
Speed (km/s)
/
Latitude / Longitude
Inclination (degrees)
Orbital Period (minutes)
Azimuth
Elevation
Range (km)
Doppler Factor

Next 0 passes for location: London (51.5072 / 0.1276)

Sorry there are no passes over London.